sat.trackr.live / text

‹ back to catalog

STARLINK-32246

NORAD 60432 · 2024-144H

PAYLOAD ACTIVE UNKNOWN

§ Identity

Operator
Country
US
Launch date
2024-08-12
Launch site
AFETR
Launch vehicle
Mass (kg)
RCS (m²)

Purposes: comms

External: N2YO · Heavens-Above · Gunter

§ Orbital elements

Epoch: 2026-05-25T05:00:56.577024Z

Period
94.11 min
Inclination
53.1601°
Eccentricity
0.0001118
Mean motion
15.30193209 rev/d
Perigee alt
474.5 km
Apogee alt
476.0 km
Semi-major
6,853.4 km
B*
3.9057e-5
RAAN
221.7772°
Arg perigee
84.4286°
Mean anomaly
275.6843°
Rev number
10,102

§ Raw data

STARLINK-322461 60432U 24144H   26145.20898816  .00000798  00000+0  39057-4 0  99912 60432  53.1601 221.7772 0001118  84.4286 275.6843 15.30193209101026

JSON: /api/v1/satellites/60432 · /tle

For live sub-satellite position, see the globe view (requires WebGL).

§ Visibility from observer

Set your observer location to see the next 7 days of passes ≥ 10°. The values pass through the URL so the page stays shareable.

No JS? Fill the form by hand. The geolocation button needs JavaScript.